Location: Stockholm
(59.3330°N, 18.0500°E)
Time: 14:01:47
(UTC+01:00)

Envisat - Pass Details

Date: 02 December 2022
Orbit: 763 x 765 km, 98.2° (Epoch: 29 January)

Event Time Altitude Azimuth Distance (km) Brightness Sun altitude
Rises 02:34:27 0° 23° (NNE) 3,249 6.8 -41.3°
Reaches altitude 10° 02:37:40 10° 44° (NE) 2,317 6.1 -40.9°
Maximum altitude 02:40:50 16° 83° (E) 1,910 5.5 -40.6°
Enters shadow 02:40:54 16° 84° (E) 1,911 5.5 -40.5°
